Форт-Уэрт

США     32°45′37″N   97°21′01″W
темп.,
°C
ветер,
м/с
пор.,
м/с
влажн.,
%
обл.,
%
осадки,
мм/ч
давл.,
гПа
погр.,
м
15 мая, сб
сб1501:00+18юв411785 0.0 1019402
04:00+17ююв411835 0.0 1018382
07:00+17ююв4139188 0.0 1018511
10:00+22ю6106980 0.0 1019796
13:00+26ю6858100 0.0 10181419
16:00+26ююв686191 0.1 10151430
19:00+23ююв41080100 3.2 1015599
22:00+21ююв4118544 0.1 1015602
16 мая, вс
вс1601:00+20ю61487100 0.1 1016870
04:00+19ююв51389100 0.0 1015788
07:00+18ююв41393100 0.6 1015771
10:00+19ююв41296100 3.5 1016805
13:00+20ююв61393100 4.3 1015942
16:00+20юв61395100 3.1 1013904
19:00+20ююв61393100 6.1 1011853
22:00+20ююв61495100 2.6 1012884
17 мая, пн
пн1701:00+19ююв71696100 5.0 1012866
04:00+20ю51194100 3.6 1011929
07:00+20ююв51295100 5.4 1011799
10:00+22ю61190100 0.1 1012995
13:00+25ю6108289 0.2 1011894
16:00+27ю587064 0.3 10091214
19:00+27ю58760 1.6 1009664
22:00+23ююв512890 0.2 1009541
18 мая, вт
вт1801:00+23ю6149342 0.2 1009729
04:00+22ю61592100 0.3 1008828
07:00+21ююв51295100 1.1 1010796
10:00+22ююв41195100 3.8 1011788
13:00+23ююв51186100 15.6 1009553
16:00+27ююв61078100 3.6 10071074
19:00+23юз91488100 21.2 10061007
22:00+19вюв7996100 46.3 1008262
19 мая, ср
ср1901:00+19ююв71492100 46.9 1010896
04:00+16юв51587100 0.8 1010523
07:00+16вюв31094100 1.1 1011328
10:00+19юв51294100 2.3 1012816
13:00+20ююв81588100 2.7 1013835
16:00+21ююв5978100 0.4 1013659
19:00+20юв61378100 0.4 1012513
22:00+18в4883100 0.0 1013339